Weather History for Tucumcari, NM

Change the Weather History Date:

Friday, January 18, 2013

  Actual Average Record
Temperature  
Mean Temperature 48 °F -  
Max Temperature 62 °F 53 °F 79 °F (1974)
Min Temperature 35 °F 26 °F -7 °F (1930)
Degree Days  
Heating Degree Days 16    
Moisture  
Dew Point 22 °F    
Average Humidity 42    
Maximum Humidity 59    
Minimum Humidity 21    
Precipitation  
Precipitation 0.00 in - - ()
Sea Level Pressure  
Sea Level Pressure 30.17 in    
Wind  
Wind Speed 14 mph (SW)    
Max Wind Speed 26 mph    
Max Gust Speed 37 mph    
Visibility 10 miles    
Events      
Averages and records for this station are not official NWS values.
T = Trace of Precipitation, MM = Missing Value Source: NWS Daily Summary

Daily Weather History Graph

Daily Weather History Graph

Search for Another Location

Airport:

Trip Planner

Search our weather history database for the weather conditions in past years. The results will help you decide how hot, cold, wet, or windy it might be!

Date:

Astronomy

Jan. 18, 2013 Rise Set
Actual Time 7:01 AM MST 5:08 PM MST
Civil Twilight 6:33 AM MST 5:36 PM MST
Nautical Twilight 6:02 AM MST 6:07 PM MST
Astronomical Twilight 5:32 AM MST 6:37 PM MST
Moon 10:59 AM MST (1/18) No Moon Set
Length of Visible Light 11h 02m
Length of Day
10h 07m
Waxing Crescent, 48% of the Moon is Illuminated
Jan 18
Waxing Crescent
Jan 18
First Quarter
Jan 26
Full
Feb 3
Last Quarter
Feb 10
New

Hourly Weather History & Observations

Time (MST) Temp. Windchill Dew Point Humidity Pressure Visibility Wind Dir Wind Speed Gust Speed Precip Events Conditions
12:53 AM 36.0 °F 27.5 °F 21.9 °F 57% 30.34 in 10.0 mi SW 12.7 mph - N/A   Clear
1:53 AM 36.0 °F 29.0 °F 21.9 °F 57% 30.33 in 10.0 mi SW 9.2 mph - N/A   Clear
2:53 AM 36.0 °F 28.5 °F 21.9 °F 57% 30.31 in 10.0 mi SW 10.4 mph - N/A   Clear
3:53 AM 35.1 °F 26.9 °F 21.9 °F 59% 30.29 in 10.0 mi SSW 11.5 mph - N/A   Clear
5:53 AM 36.0 °F - 21.0 °F 55% 30.27 in 10.0 mi Calm Calm - N/A   Clear
6:53 AM 37.0 °F 26.2 °F 21.9 °F 54% 30.26 in 10.0 mi SW 21.9 mph - N/A   Clear
7:53 AM 37.9 °F 27.6 °F 21.9 °F 53% 30.28 in 10.0 mi SW 20.7 mph - N/A   Clear
8:53 AM 43.0 °F 33.1 °F 21.9 °F 43% 30.27 in 10.0 mi SSW 26.5 mph 36.8 mph N/A   Clear
9:53 AM 48.9 °F - 23.0 °F 36% 30.26 in 10.0 mi SW 23.0 mph - N/A   Clear
10:53 AM 53.1 °F - 21.9 °F 30% 30.21 in 10.0 mi SSW 20.7 mph 28.8 mph N/A   Clear
11:53 AM 55.9 °F - 21.9 °F 27% 30.16 in 10.0 mi SW 21.9 mph 28.8 mph N/A   Clear
12:53 PM 57.0 °F - 21.9 °F 26% 30.11 in 10.0 mi SW 19.6 mph 26.5 mph N/A   Clear
1:53 PM 60.1 °F - 21.9 °F 23% 30.07 in 10.0 mi SW 17.3 mph - N/A   Clear
2:53 PM 61.0 °F - 21.9 °F 22% 30.06 in 10.0 mi SSW 15.0 mph - N/A   Clear
3:53 PM 62.1 °F - 21.0 °F 21% 30.04 in 10.0 mi South 11.5 mph - N/A   Clear
4:53 PM 55.9 °F - 23.0 °F 28% 30.06 in 10.0 mi SSE 6.9 mph - N/A   Clear
5:53 PM 52.0 °F - 21.9 °F 31% 30.07 in 10.0 mi SSW 12.7 mph - N/A   Clear
6:53 PM 44.1 °F 39.0 °F 23.0 °F 43% 30.09 in 10.0 mi SW 9.2 mph - N/A   Clear
7:53 PM 43.0 °F 38.2 °F 21.9 °F 43% 30.09 in 10.0 mi SW 8.1 mph - N/A   Clear
8:53 PM 39.0 °F 32.8 °F 21.9 °F 50% 30.09 in 10.0 mi SW 9.2 mph - N/A   Clear
9:53 PM 37.9 °F 30.5 °F 21.0 °F 51% 30.07 in 10.0 mi WSW 11.5 mph - N/A   Clear
10:53 PM 37.0 °F 29.8 °F 19.9 °F 50% 30.06 in 10.0 mi WSW 10.4 mph - N/A   Clear
11:53 PM 36.0 °F 29.0 °F 19.9 °F 52% 30.06 in 10.0 mi West 9.2 mph - N/A   Clear